Regional Weather Roundup
Issued by NWS Sterling, VA

Home | Current Version | Previous Version | Text Only | Print | Product List | Glossary Off
Versions: 1 2 3 4 5 6 7 8 9 10 11 12 13 14 15 16 17 18 19 20 21 22 23 24 25 26 27 28 29 30 31 32 33 34 35 36 37 38 39 40 41 42 43 44 45 46 47 48 49 50

000
ASUS41 KLWX 230010
RWRLWX

REGIONAL WEATHER ROUNDUP
NATIONAL WEATHER SERVICE BALTIMORE MD/WASHINGTON DC
800 PM EDT FRI MAY 22 2015

Note: "FAIR" indicates few or no clouds below 12,000 feet
with no significant weather and/or obstructions to visibility.
 TC=TEMPERATURE CELSIUS

 * =Non NWS site. Station does not report precipitation (e.g. rain,
    snow, etc.), thunder, or fog.

DCZ001-MDZ009-015-VAZ040>042-051-053>054-230100-
WASHINGTON METRO

CITY           SKY/WX    TMP DP  RH WIND       PRES   REMARKS
WASHINGTON NAT PTCLDY    75  39  27 W12       30.12R
DULLES         PTCLDY    70  40  33 W16       30.13R
ANDREWS AFB    CLEAR     72  40  30 W13G23    30.11R
FT BELVOIR     CLEAR     73  39  29 NW14G21   30.13R
QUANTICO       PTCLDY    72  45  37 W6        30.14R
COLLEGE PARK*  CLEAR     72  39  30 W6        30.11R
LEESBURG*      CLEAR     70  45  40 W14G22    30.14R
MANASSAS*      CLEAR     72  39  30 W7        30.14R
GAITHERSBURG*  CLEAR     68  43  40 W8G18     30.15R

$$

MDZ006>007-011-014-230100-
BALTIMORE METRO

CITY           SKY/WX    TMP DP  RH WIND       PRES   REMARKS
BWI AIRPORT    PTCLDY    69  42  37 W12G21    30.10R
MD SCIENCE CTR   N/A     72  41  32 MISG      30.10R
MARTIN STATE   PTCLDY    70  45  40 NW12      30.10R
ANNAPOLIS      PTCLDY    71  41  33 W6        30.10R
FORT MEADE*    CLEAR     64  45  48 W5        30.13R

$$

MDZ012-015-019>023-230100-
MARYLAND EASTERN SHORE

CITY           SKY/WX    TMP DP  RH WIND       PRES   REMARKS
OCEAN CITY     CLEAR     67  45  45 W7        30.12R
SALISBURY      CLEAR     65  46  50 SW8       30.12R
BAY BRIDGE AP*   N/A    N/A N/A N/A NW10      30.11R
CAMBRIDGE*     PTCLDY    70  46  43 SW5       30.11R
EASTON*        CLEAR     70  52  52 W6        30.14R

$$

MDZ017>025-230100-
SOUTHERN MARYLAND

CITY           SKY/WX    TMP DP  RH WIND       PRES   REMARKS
PATUXENT RIVER PTCLDY    68  47  46 SW8       30.12R
ST INIGOES     CLEAR     69  49  48 SW7       30.13R
LEONARDTOWN*   MOCLDY    68  45  42 SW6       30.14R

$$

MDZ003>005-230100-
NORTH CENTRAL MARYLAND

CITY           SKY/WX    TMP DP  RH WIND       PRES   REMARKS
FREDERICK*     PTCLDY    70  48  46 W12       30.14R
HAGERSTOWN APT PTCLDY    68  42  38 NW12      30.12R
WESTMINSTER*   CLEAR     66  43  42 W12G20    30.12R

$$

MDZ501>502-230100-
WESTERN MARYLAND

CITY           SKY/WX    TMP DP  RH WIND       PRES   REMARKS
OAKLAND*       MOCLDY    54  52  94 NW8       30.22R
CUMBERLAND*    CLEAR     68  43  40 NW14G20   30.20R

$$

VAZ025>031-230100-
SHENANDOAH VALLEY

CITY           SKY/WX    TMP DP  RH WIND       PRES   REMARKS
WINCHESTER*    PTCLDY    68  32  26 W12G18    30.15R
FRONT ROYAL*   FAIR      66  43  42 NW3       30.15R
LURAY*         FAIR      70  43  37 W9        30.17R
NEW MARKET*    FAIR      65  44  48 W3        30.15R
STAUNTON*      CLEAR     66  39  36 NW6       30.20R
WAYNESBORO*    FAIR      67  38  35 NW3       30.19R

$$

WVZ021-048>050-054>055-230100-
EASTERN WEST VIRGINIA PANHANDLE

CITY           SKY/WX    TMP DP  RH WIND       PRES   REMARKS
MARTINSBURG    PTCLDY    66  44  45 W16       30.14R
PETERSBURG*    PTCLDY    64  40  42 NW13G21   30.19R

$$

VAZ036>039-050-230100-
CENTRAL FOOTHILLS

CITY           SKY/WX    TMP DP  RH WIND       PRES   REMARKS
CHARLOTTESVILL PTCLDY    71  38  29 NW5       30.15R
CULPEPER*      PTCLDY    70  41  34 NW3       30.15R
ORANGE*        PTCLDY    70  46  43 CALM      30.17R
GORDONSVILLE*  CLOUDY    69  49  48 SW5       30.15R
WARRENTON*     FAIR      69  49  49 W5        30.15R

$$

VAZ055>057-230100-
NORTH AND CENTRAL PIEDMONT

CITY           SKY/WX    TMP DP  RH WIND       PRES   REMARKS
FREDERICKSBRG* MOCLDY    73  48  41 SW6       30.14R
STAFFORD*      MOCLDY    68  48  48 CALM      30.18R

$$

NCZ024-NYZ072-PAZ021-071-VAZ022-071-230100-
OTHER REGIONAL OBSERVATIONS

CITY           SKY/WX    TMP DP  RH WIND       PRES   REMARKS
NEW YORK CITY  PTCLDY    68  40  35 VRB3      30.01R
PHILADELPHIA   PTCLDY    73  39  29 W13       30.05R
PITTSBURGH     PTCLDY    60  26  27 N15       30.23R
ROANOKE        PTCLDY    69  38  32 W8        30.24R
RICHMOND       PTCLDY    70  43  37 SW6       30.17R
RALEIGH        PTCLDY    68  48  48 CALM      30.22R

$$

ANZ530>537-230100-
MARINE OBSERVATIONS

STATION/POSITION TIME  TEMP    WIND        PRES
                       AIR SEA DIR/SP/G
                 (UTC) (F)     (DEG/KT/KT) (MB)
THOMAS PT LIGHT  0000   73 65  290/  9/ 11 1020.1R
BALT KEY BRIDGE  2300   72     270/ 19/ 22 1017.6R
LEWISETTA        2300   72 70              1019.8R
SOLOMONS ISLAND  2300      68                N/A
PINEY POINT      2300          270/ 10/ 11   N/A

$$




USA.gov is the U.S. government's official web portal to all federal, state and local government web resources and services.